Погода в Миссиссаге

Канада     43°35′12″N   79°38′43″W
темп.,
°C
ветер,
м/с
пор.,
м/с
влажн.,
%
обл.,
%
осадки,
мм/ч
давл.,
гПа
погр.,
м
19 апреля, пн
пн1923:00+7зсз24574 0.0 1011148
02:00+6зсз23620 0.0 101177
05:00+5з22625 0.0 101056
08:00+6юз25577 0.0 1010181
11:00+13юз484720 0.0 10091429
14:00+15юз594182 0.0 10072309
17:00+15юз71246100 0.1 10052290
20:00+6з61284100 2.3 1009702
20 апреля, вт
вт2023:00+6зюз4982100 0.4 1009973
02:00+4з497288 0.4 1010978
05:00+1з411696 0.0 1012775
08:00+2з51165100 0.0 10141075
11:00+5з61046100 0.0 10151712
14:00+7з6937100 0.0 10151999
17:00+6з5841100 0.0 10151949
20:00+4з3546100 0.0 10161272
21 апреля, ср
ср2123:00+3ссз3549100 0.1 10161099
02:00+1с3558100 0.3 1015955
05:000сз365798 0.3 1014938
08:00−1ссз576451 0.3 1015871
11:00+2сз5640100 0.0 10151807
14:00+4сз6736100 0.0 10142195
17:00+3сз7844100 0.1 10151947
20:00+1сз5856100 0.1 10161317
22 апреля, чт
чт2223:000зсз51158100 0.0 1017774
02:000зсз51152100 0.0 1016751
05:000зсз6115535 0.0 1016921
08:00+1зсз510555 0.0 10181167
11:00+5зсз7113242 0.0 10171971
14:00+7зсз81130100 0.0 10172395
17:00+8з7113273 0.0 10172192
20:00+6з512425 0.0 10161348
23 апреля, пт
пт2323:00+4з5135298 0.0 1018546
02:00+3з615585 0.0 1018581
05:00+3з616590 0.0 1018497
08:00+4з515592 0.0 1019477
11:00+11з69440 0.0 10191098
14:00+14з69368 0.0 10182030
17:00+14з693576 0.0 10172276
20:00+10юз595591 0.0 1018551